Location: Bratsk-Energetik
(56.3300°N, 101.7600°E)
Time: 03:58:59
(UTC+08:00)

ISS - Visible Passes

Search period start: 28 February 2021 00:00
Search period end: 10 March 2021 00:00
Orbit: 417 x 422 km, 51.6° (Epoch: 27 February)

Date Brightness Start Highest point End Pass type
(mag) Time Alt. Az. Time Alt. Az. Time Alt. Az.
28 Feb -0.7 04:54:40 11° ESE 04:54:40 11° ESE 04:54:56 10° ESE visible
28 Feb -2.4 06:27:38 20° SW 06:29:14 31° SSE 06:32:16 10° ESE visible
01 Mar -2.2 05:42:00 27° SSE 05:42:00 27° SSE 05:44:49 10° ESE visible
01 Mar -2.7 07:15:08 10° WSW 07:18:16 37° S 07:21:24 10° ESE visible
02 Mar -1.1 04:56:20 15° ESE 04:56:20 15° ESE 04:57:18 10° ESE visible
02 Mar -2.8 06:29:18 22° SW 06:30:54 36° S 06:34:02 10° ESE visible
03 Mar -2.7 05:43:37 34° SSE 05:43:37 34° SSE 05:46:38 10° ESE visible
03 Mar -2.6 07:16:52 10° WSW 07:19:55 32° SSW 07:22:57 10° SE visible
04 Mar -1.4 04:57:56 19° ESE 04:57:56 19° ESE 04:59:11 10° ESE visible
04 Mar -2.8 06:30:53 21° WSW 06:32:33 35° S 06:35:40 10° ESE visible
05 Mar -2.9 05:45:13 37° S 05:45:13 37° S 05:48:18 10° ESE visible
06 Mar -1.6 04:59:33 21° ESE 04:59:33 21° ESE 05:00:55 10° ESE visible
06 Mar -2.5 06:32:30 19° WSW 06:34:09 28° SSW 06:37:04 10° SE visible
07 Mar -2.8 05:46:53 32° S 05:46:53 32° S 05:49:49 10° SE visible
08 Mar -1.5 05:01:17 19° SE 05:01:17 19° SE 05:02:30 10° ESE visible
08 Mar -2.0 06:34:15 15° WSW 06:35:38 19° SSW 06:38:04 10° SSE visible
09 Mar -2.2 05:48:44 23° S 05:48:44 23° S 05:51:02 10° SSE visible
